[[{"header":{"parameterUnit":"m.s-1","parameterCategory":1,"la1":30.2991,"la2":30.254,"lo1":-89.0895,"lo2":-89.0444,"dy":0.0017,"dx":0.0017,"nx":28,"ny":28,"refTime":"2024-04-16T21:00:00:Z","depth":0,"parameterNumber":2,"parameterNumberName":"U-component_of_WINDS"},"data":[0,0,0,0,0,0,0,0,0,0,0,0,0,0,0,0,0,0,0,0,0,0,0,0,0,0,0,0,0,0,0,0,0,0,0,0,0,0,0,0,0,0,0,0,0,0,0,0,0,0,0,0,0,0,0,0,0,0,-3.3883,-3.3884,0,-3.3957,-3.3958,-3.3958,-3.3982,-3.3982,-3.3981,-3.3981,-3.4055,-3.4057,-3.4059,0,0,0,0,0,0,0,0,0,0,0,0,0,-3.3762,-3.3764,-3.3883,-3.3884,-3.3885,-3.3957,-3.3958,-3.3959,-3.3982,-3.3982,-3.3981,-3.3981,-3.4054,-3.4057,-3.4059,0,0,0,0,0,0,0,0,0,0,0,0,0,-3.3823,-3.3765,-3.3883,-3.3905,-3.3908,-3.3956,-3.3958,-3.3959,-3.3982,-3.3982,-3.3981,-3.3981,-3.4053,-3.4056,-3.406,-3.4091,0,0,-3.407,-3.4072,0,0,0,0,0,0,0,0,-3.3819,-3.3827,-3.3901,-3.3904,-3.3907,-3.396,-3.3942,-3.4003,-3.3982,-3.3954,-3.3981,-3.398,-3.4023,-3.4029,-3.4044,-3.4094,-3.4098,-3.407,-3.4073,-3.4074,-3.4075,0,0,0,0,0,0,0,-3.3815,-3.3824,-3.3912,-3.3902,-3.3906,-3.3911,-3.392,-3.3954,-3.399,-3.3956,-3.3958,-3.3967,-3.4025,-3.4041,-3.4046,-3.4099,-3.407,-3.4073,-3.4076,-3.4077,-3.418,-3.4181,0,0,0,0,0,0,-3.3807,-3.3821,-3.391,-3.3914,-3.3861,-3.3914,-3.3923,-3.3943,-3.399,-3.3997,-3.3967,-3.3967,-3.4035,-3.4042,-3.4049,-3.4089,-3.4074,-3.4077,-3.4079,-3.418,-3.4181,-3.4181,0,0,0,0,0,0,-3.3805,-3.3815,-3.3907,-3.3868,-3.388,-3.3917,-3.3939,-3.3945,-3.3961,-3.3998,-3.4005,-3.3976,-3.4035,-3.4044,-3.4081,-3.4092,-3.4079,-3.4082,-3.4179,-3.418,-3.4181,-3.417,0,0,0,0,0,0,-3.3801,-3.3814,-3.3826,-3.3868,-3.3882,-3.3937,-3.394,-3.3947,-3.3967,-3.3968,-3.4009,-3.4015,-3.4035,-3.4076,-3.4084,-3.4096,-3.4085,-3.4178,-3.4179,-3.4181,-3.4169,-3.417,-3.4171,0,0,0,0,0,-3.3797,-3.3819,-3.3826,-3.3837,-3.3898,-3.3938,-3.3946,-3.3969,-3.3968,-3.398,-3.4005,-3.4014,-3.409,-3.4079,-3.4089,-3.4102,-3.4177,-3.4179,-3.4181,-3.4169,-3.417,-3.4171,0,0,0,0,0,0,-3.3775,-3.3825,-3.3833,-3.387,-3.39,-3.3942,-3.3958,-3.397,-3.4,-3.4,-3.4027,-3.4036,-3.4071,-3.4091,-3.4078,-3.4136,-3.4134,-3.4138,-3.4122,-3.4123,-3.4124,-3.4118,-3.4087,0,0,0,0,0,-3.3775,-3.3804,-3.3846,-3.3874,-3.3889,-3.3921,-3.3939,-3.3955,-3.3986,-3.3999,-3.4026,-3.4056,-3.4087,-3.4106,-3.4137,-3.4173,-3.4183,-3.4187,-3.4188,-3.4189,-3.4191,-3.4213,-3.4216,-3.4187,-3.4187,-3.4187,0,0,-3.3775,-3.3805,-3.3821,-3.3871,-3.3895,-3.3925,-3.3931,-3.3961,-3.3983,-3.4003,-3.404,-3.4061,-3.4097,-3.4134,-3.4152,-3.4151,-3.4202,-3.4191,-3.4191,-3.4193,-3.4215,-3.4218,-3.422,-3.4188,-3.4187,-3.4187,0,0,-3.3789,-3.3815,-3.3842,-3.3867,-3.3906,-3.3927,-3.3934,-3.3975,-3.399,-3.4028,-3.4044,-3.4071,-3.4123,-3.4148,-3.4168,-3.4195,-3.4205,-3.4204,-3.4208,-3.4229,-3.4232,-3.4234,-3.4244,-3.4247,-3.4207,-3.4207,-3.4207,0,-3.3783,-3.3828,-3.3854,-3.3884,-3.3906,-3.3927,-3.3955,-3.3978,-3.4024,-3.4038,-3.4038,-3.4106,-3.4131,-3.4175,-3.4182,-3.4197,-3.4205,-3.4198,-3.4229,-3.4232,-3.4234,-3.4244,-3.4248,-3.4206,-3.4206,-3.4206,-3.4206,0,-3.3819,-3.385,-3.3868,-3.3913,-3.3936,-3.3965,-3.3996,-3.4017,-3.4032,-3.4054,-3.4093,-3.4124,-3.4162,-3.4174,-3.4188,-3.4221,-3.422,-3.4224,-3.4222,-3.4236,-3.4246,-3.425,-3.4206,-3.4206,-3.4206,-3.4206,0,0,-3.382,-3.3881,-3.3887,-3.3908,-3.3953,-3.3978,-3.4008,-3.4046,-3.4064,-3.4096,-3.4122,-3.4167,-3.4173,-3.4195,-3.4212,-3.4231,-3.4251,-3.4233,-3.4235,-3.4235,-3.429,-3.4286,-3.4289,-3.4259,-3.426,-3.426,-3.4287,0,-3.3839,-3.3895,-3.392,-3.3964,-3.3994,-3.4016,-3.4043,-3.4073,-3.4096,-3.4124,-3.4149,-3.418,-3.4185,-3.4199,-3.4218,-3.4244,-3.4262,-3.4243,-3.4283,-3.4284,-3.4273,-3.4294,-3.429,-3.4313,-3.4291,-3.4291,-3.4292,0,-3.3869,-3.3902,-3.3949,-3.3992,-3.4006,-3.4029,-3.4067,-3.4094,-3.413,-3.4145,-3.4171,-3.4189,-3.4222,-3.422,-3.4267,-3.4253,-3.4272,-3.4287,-3.4289,-3.4292,-3.4288,-3.4298,-3.4321,-3.4324,-3.4298,-3.4298,-3.4297,0,-3.3865,-3.3921,-3.3957,-3.3975,-3.4026,-3.4042,-3.4064,-3.41,-3.4122,-3.4155,-3.417,-3.4206,-3.4226,-3.4254,-3.4281,-3.4277,-3.4326,-3.4325,-3.434,-3.4339,-3.4348,-3.4346,-3.4373,-3.4361,-3.4361,-3.4361,-3.4361,0,-3.3884,-3.3911,-3.3956,-3.3978,-3.401,-3.404,-3.4072,-3.4095,-3.4127,-3.4155,-3.4176,-3.4201,-3.4236,-3.4266,-3.4287,-3.4323,-3.4332,-3.4345,-3.4351,-3.4343,-3.4341,-3.4355,-3.4353,-3.4362,-3.4362,-3.4361,-3.4361,0,-3.3884,-3.3914,-3.3955,-3.4001,-3.4013,-3.4035,-3.4075,-3.4097,-3.4122,-3.4156,-3.4166,-3.4204,-3.424,-3.4271,-3.4318,-3.4333,-3.437,-3.4377,-3.4358,-3.4361,-3.4373,-3.4371,-3.4408,-3.4415,-3.4399,-3.4399,-3.4399,0,-3.3893,-3.3915,-3.3964,-3.3985,-3.4007,-3.4039,-3.4062,-3.4093,-3.4116,-3.416,-3.4177,-3.4215,-3.4247,-3.4305,-3.4337,-3.4374,-3.4381,-3.4392,-3.4386,-3.4379,-3.4381,-3.4379,-3.4382,-3.4391,-3.4391,-3.4391,-3.4391,0,-3.3907,-3.3922,-3.3954,-3.3992,-3.4019,-3.4051,-3.4083,-3.4098,-3.4135,-3.416,-3.4198,-3.4223,-3.4273,-3.4311,-3.4352,-3.4375,-3.4389,-3.4393,-3.4398,-3.439,-3.4378,-3.4385,-3.4359,-3.4392,-3.4392,-3.4392,-3.4392,-3.4392,-3.3912,-3.3934,-3.3972,-3.4007,-3.4035,-3.4065,-3.4089,-3.4117,-3.4149,-3.4192,-3.4209,-3.4248,-3.4285,-3.4342,-3.4365,-3.4397,-3.4398,-3.4406,-3.4408,-3.4409,-3.4408,-3.4375,-3.4404,-3.4404,-3.4404,-3.4404,-3.4405,0,-3.3927,-3.3953,-3.3986,-3.4031,-3.4059,-3.4072,-3.4108,-3.4131,-3.4165,-3.4199,-3.4231,-3.4275,-3.4313,-3.4349,-3.4388,-3.4406,-3.4414,-3.4416,-3.4414,-3.4419,-3.4404,-3.4395,-3.4409,-3.4409,-3.4409,-3.4409,-3.4409,-3.4409,-3.3938,-3.3975,-3.3995,-3.4046,-3.4072,-3.4111,-3.4131,-3.4159,-3.4186,-3.4235,-3.4266,-3.429,-3.4325,-3.4367,-3.4403,-3.4412,-3.4426,-3.4425,-3.4437,-3.4421,-3.442,-3.4419,-3.4412,-3.4428,-3.4428,-3.445,-3.445,-3.445]},{"header":{"parameterUnit":"m.s-1","parameterCategory":1,"la1":30.2991,"la2":30.254,"lo1":-89.0895,"lo2":-89.0444,"dy":0.0017,"dx":0.0017,"nx":28,"ny":28,"refTime":"2024-04-16T21:00:00:Z","depth":0,"parameterNumber":3,"parameterNumberName":"V-component_of_WINDS"},"data":[0,0,0,0,0,0,0,0,0,0,0,0,0,0,0,0,0,0,0,0,0,0,0,0,0,0,0,0,0,0,0,0,0,0,0,0,0,0,0,0,0,0,0,0,0,0,0,0,0,0,0,0,0,0,0,0,0,0,4.3423,4.3423,0,4.3394,4.3394,4.3394,4.3434,4.3436,4.3437,4.3439,4.34,4.3398,4.3396,0,0,0,0,0,0,0,0,0,0,0,0,0,4.3507,4.3505,4.3423,4.3423,4.3422,4.3394,4.3394,4.3393,4.3434,4.3436,4.3438,4.3439,4.3401,4.3398,4.3396,0,0,0,0,0,0,0,0,0,0,0,0,0,4.3473,4.3504,4.3423,4.3439,4.3441,4.3394,4.3394,4.3393,4.3434,4.3436,4.3438,4.344,4.3402,4.3399,4.3395,4.3329,0,0,4.3384,4.3383,0,0,0,0,0,0,0,0,4.3475,4.347,4.3437,4.3438,4.344,4.342,4.3409,4.3371,4.3433,4.3436,4.3439,4.3441,4.3405,4.3401,4.3391,4.3327,4.3326,4.3384,4.3382,4.338,4.3379,0,0,0,0,0,0,0,4.3477,4.3471,4.3411,4.3437,4.3438,4.3446,4.3444,4.3402,4.3408,4.3436,4.3439,4.3435,4.3406,4.3394,4.339,4.3325,4.3384,4.3381,4.3379,4.3377,4.3208,4.3205,0,0,0,0,0,0,4.3479,4.3473,4.3412,4.3411,4.3463,4.3443,4.344,4.3424,4.3409,4.3409,4.3433,4.3437,4.3399,4.3394,4.3389,4.3312,4.338,4.3377,4.3375,4.321,4.3207,4.3205,0,0,0,0,0,0,4.348,4.3473,4.3414,4.3443,4.3436,4.3439,4.3421,4.3422,4.3411,4.3407,4.3407,4.3421,4.34,4.3394,4.3345,4.3311,4.3375,4.3372,4.3213,4.3209,4.3206,4.3156,0,0,0,0,0,0,4.3483,4.3473,4.345,4.3442,4.3434,4.3372,4.3419,4.342,4.3406,4.341,4.3395,4.3395,4.3402,4.335,4.3341,4.3307,4.3369,4.3216,4.3211,4.3207,4.3161,4.3152,4.3144,0,0,0,0,0,4.3485,4.3434,4.3448,4.3441,4.3405,4.337,4.3365,4.3376,4.3403,4.3378,4.3376,4.3395,4.3316,4.3344,4.3335,4.3299,4.3218,4.3213,4.3207,4.3165,4.3153,4.3144,0,0,0,0,0,0,4.3434,4.3434,4.3449,4.3394,4.3382,4.3377,4.3346,4.3363,4.3341,4.3346,4.3359,4.3355,4.3303,4.3296,4.3328,4.3236,4.3271,4.3264,4.3242,4.3231,4.3223,4.3225,4.3366,0,0,0,0,0,4.3418,4.3391,4.3391,4.3343,4.3336,4.3342,4.3327,4.3338,4.3324,4.3318,4.3312,4.3296,4.3268,4.3249,4.3223,4.316,4.3158,4.3131,4.3123,4.3115,4.3109,4.3077,4.3065,4.3187,4.3187,4.3187,0,0,4.3381,4.3377,4.3359,4.3333,4.3324,4.3296,4.3337,4.3304,4.3282,4.3312,4.3267,4.3262,4.3245,4.319,4.3165,4.3182,4.3075,4.3109,4.3103,4.31,4.307,4.3058,4.3048,4.3184,4.3184,4.3185,0,0,4.33,4.3295,4.3255,4.3247,4.3235,4.324,4.323,4.3223,4.3222,4.3177,4.32,4.3172,4.3123,4.3111,4.3098,4.3015,4.3032,4.3006,4.296,4.2928,4.2919,4.291,4.2882,4.2871,4.2999,4.2999,4.2999,0,4.3255,4.3215,4.3232,4.3198,4.3186,4.3215,4.3175,4.3165,4.3143,4.3133,4.3154,4.3095,4.3085,4.3028,4.3008,4.2997,4.2986,4.3008,4.2919,4.2911,4.2903,4.2876,4.2865,4.2996,4.2996,4.2997,4.2997,0,4.3161,4.3133,4.3102,4.3085,4.3069,4.3032,4.3041,4.3022,4.3034,4.3036,4.299,4.2981,4.2954,4.2941,4.295,4.2885,4.2897,4.2918,4.2954,4.2888,4.2863,4.2853,4.2992,4.2993,4.2994,4.2994,0,0,4.3046,4.3042,4.303,4.3024,4.3014,4.2991,4.2955,4.2932,4.2916,4.29,4.287,4.2829,4.285,4.2836,4.2844,4.2816,4.2753,4.2841,4.2841,4.2826,4.2681,4.2666,4.2654,4.2764,4.2762,4.2761,4.2683,0,4.2967,4.2908,4.2923,4.2864,4.2838,4.2866,4.2835,4.2824,4.2825,4.2802,4.2802,4.2774,4.2802,4.2794,4.2768,4.2766,4.2724,4.2772,4.2735,4.2734,4.274,4.264,4.2624,4.2551,4.2673,4.2672,4.267,0,4.2866,4.2851,4.2791,4.2788,4.2777,4.2749,4.273,4.2708,4.2696,4.2699,4.2684,4.2699,4.2662,4.2699,4.2648,4.268,4.2666,4.2662,4.266,4.2657,4.2698,4.2635,4.2528,4.2517,4.2655,4.2656,4.2657,0,4.279,4.2754,4.2714,4.2707,4.2702,4.2682,4.2678,4.2669,4.2655,4.2638,4.2629,4.2605,4.2593,4.2574,4.2582,4.2608,4.2529,4.2566,4.253,4.2529,4.2512,4.2513,4.2401,4.2501,4.2502,4.2502,4.2502,0,4.27,4.2662,4.268,4.2655,4.2614,4.263,4.2587,4.2587,4.2579,4.2553,4.2575,4.255,4.2561,4.2536,4.2542,4.2499,4.2493,4.2493,4.2495,4.2492,4.2492,4.2483,4.2488,4.2499,4.25,4.25,4.2501,0,4.2608,4.2619,4.2577,4.2577,4.2576,4.2545,4.2544,4.252,4.2524,4.2491,4.2484,4.2488,4.2461,4.2467,4.2435,4.2439,4.2386,4.2393,4.2391,4.2393,4.2356,4.236,4.2235,4.222,4.2329,4.2328,4.2327,0,4.255,4.2523,4.252,4.2507,4.2503,4.2479,4.2466,4.2481,4.2466,4.2452,4.243,4.2405,4.2386,4.234,4.2339,4.2315,4.2323,4.2281,4.2319,4.2317,4.2323,4.2325,4.2323,4.2273,4.2272,4.2271,4.227,0,4.2447,4.2455,4.2437,4.2421,4.2405,4.2392,4.2381,4.2368,4.2382,4.2364,4.2338,4.2323,4.2293,4.2268,4.2246,4.224,4.2257,4.2258,4.2248,4.2245,4.2245,4.2246,4.2371,4.2261,4.2262,4.2262,4.2263,4.2263,4.2371,4.2349,4.2345,4.2324,4.2318,4.2308,4.2287,4.2289,4.2268,4.2247,4.2257,4.2227,4.2216,4.219,4.2182,4.2157,4.2173,4.2158,4.2155,4.2152,4.2148,4.2249,4.2153,4.2153,4.2154,4.2154,4.2154,0,4.2271,4.227,4.2251,4.2237,4.2221,4.2241,4.223,4.2215,4.2189,4.218,4.2162,4.2132,4.2108,4.2107,4.2084,4.2065,4.2072,4.2058,4.206,4.2058,4.2135,4.2146,4.2053,4.2053,4.2053,4.2053,4.2053,4.2053,4.2216,4.218,4.2187,4.2148,4.2147,4.212,4.2112,4.2103,4.2096,4.2063,4.2045,4.2045,4.2038,4.2016,4.1994,4.1994,4.1985,4.1969,4.1971,4.2043,4.2053,4.2062,4.2073,4.1966,4.1966,4.1898,4.1897,4.1896]}]]